Regional Weather Roundup
Issued by NWS

Home | Current Version | Previous Version | Graphics & Text | Print | Product List | Glossary On
Versions: 1 2 3 4 5 6 7 8 9 10 11 12 13 14 15 16 17 18 19 20 21 22 23 24 25 26 27 28 29 30 31 32 33 34 35 36 37 38 39 40 41 42 43 44 45 46 47 48 49 50
000
ASUS43 KIND 012359
RWRIN

WEATHER ROUNDUP FOR INDIANA
NATIONAL WEATHER SERVICE INDIANAPOLIS IN
700 PM EST SUN MAR 01 2015

NOTE: "FAIR" INDICATES FEW OR NO CLOUDS BELOW 12,000 FEET WITH NO
SIGNIFICANT WEATHER AND/OR OBSTRUCTIONS TO VISIBILITY.

* - STATION DOES NOT REPORT WEATHER SUCH AS PRECIPITATION OR FOG.

+ - STATION NOT QUALITY CONTROLLED BY THE NATIONAL WEATHER SERVICE.
    USE DATA WITH CAUTION...ESPECIALLY DEWPOINT AND RELATIVE
    HUMIDITY OBSERVATIONS.

INZ001>003-010>013-019-020-020100-
NORTHWEST INDIANA

CITY           SKY/WX    TMP DP  RH WIND       PRES   REMARKS
GARY /AIRPORT/ MOCLDY    25  14  63 W12       30.29R WCI  14
MONTICELLO +   PTCLDY    22  19  89 W3        30.28F
6HR MIN TEMP:  22; 6HR MAX TEMP:  25;

VALPARAISO     MOCLDY    21  16  81 W10       30.27F WCI  10

$$

LMZ046-743>745-020100-
SOUTHERN LAKE MICHIGAN

STATION/POSITION TIME  TEMP WIND        PRES
                       AIR  DIR/SP/G
                 (UTC) (F)  (DEG/KT/KT) (MB)
MICHIGAN CITY    2300   23  220/  6/  6   N/A

$$

INZ004-005-014>016-021>024-020100-
NORTH CENTRAL INDIANA

CITY           SKY/WX    TMP DP  RH WIND       PRES   REMARKS
GOSHEN         PTCLDY    19  14  81 W7        30.25S WCI  10
6HR MIN TEMP:  18; 6HR MAX TEMP:  23; 6HR PCP:  0.01;

SOUTH BEND     CLOUDY    24  17  74 SW7       30.25F WCI  16
6HR MIN TEMP:  21; 6HR MAX TEMP:  25; 6HR PCP:  0.02;


$$

INZ006>009-017-018-025>027-020100-
NORTHEAST INDIANA

CITY           SKY/WX    TMP DP  RH WIND       PRES   REMARKS
ANGOLA *+      CLEAR     21  16  79 W3        30.23S
FORT WAYNE     MOCLDY    22  18  85 W7        30.26F WCI  13
6HR MIN TEMP:  19; 6HR MAX TEMP:  27; 6HR PCP:  0.02;


$$

INZ028-029-035-036-043>045-051>053-020100-
WEST CENTRAL INDIANA

CITY           SKY/WX    TMP DP  RH WIND       PRES   REMARKS
CRAWFORDSVL +  CLOUDY    25  19  79 W8        30.30R WCI  16
6HR MIN TEMP:  24; 6HR MAX TEMP:  27;

GREENCASTLE +  CLOUDY    30  23  74 NW3       30.30R
LAFAYETTE      PTCLDY    21  17  84 W3        30.31R
6HR MIN TEMP:  21; 6HR MAX TEMP:  26; 6HR PCP: TRACE;

TERRE HAUTE    MOCLDY    27  22  81 NW9       30.34R WCI  18
6HR MIN TEMP:  27; 6HR MAX TEMP:  31; 6HR PCP:  0.01;


$$

INZ030>032-037>040-046>048-054>057-064-065-020100-
CENTRAL INDIANA

CITY           SKY/WX    TMP DP  RH WIND       PRES   REMARKS
COLUMBUS       CLOUDY    30  30 100 CALM      30.30R
FRANKFORT +    MOCLDY    19  18  94 W9        30.31R WCI   9
6HR MIN TEMP:  19; 6HR MAX TEMP:  30;

GREENWOOD *+   CLOUDY    30  25  80 W5        30.29R WCI  25
INDIANAPOLIS   CLOUDY    28  24  85 NW9       30.28R WCI  19
6HR MIN TEMP:  28; 6HR MAX TEMP:  31; 6HR PCP:  0.02;

-EAGLE CREEK   CLOUDY    27  23  85 NW6       30.29R WCI  20
6HR MIN TEMP:  27; 6HR MAX TEMP:  29; 6HR PCP:  0.03;

KOKOMO *+      PTCLDY    25  19  80 W8        30.28R WCI  16
6HR MIN TEMP:  23; 6HR MAX TEMP:  27; 6HR PCP:  0.18;

MT COMFORT *+  CLOUDY    30  27  86 W6        30.29R WCI  24
SHELBYVILLE    CLOUDY    33  28  81 W8        30.28R WCI  26
6HR MIN TEMP:  32; 6HR MAX TEMP:  34; 6HR PCP:  0.01;


$$

INZ033-034-041-042-049-050-058-059-020100-
EAST CENTRAL INDIANA

CITY           SKY/WX    TMP DP  RH WIND       PRES   REMARKS
MUNCIE         CLOUDY    25  22  88 NW5       30.26S WCI  19
6HR MIN TEMP:  25; 6HR MAX TEMP:  28; 6HR PCP:  0.02;


$$

INZ060-061-067>069-081>083-085>088-020100-
SOUTHWEST INDIANA

CITY           SKY/WX    TMP DP  RH WIND       PRES   REMARKS
EVANSVILLE     CLOUDY    34  30  85 NW7       30.34S WCI  28
6HR MIN TEMP:  34; 6HR MAX TEMP:  37;

HUNTINGBURG *+ MOCLDY    34  28  80 W7        30.33R WCI  28
6HR MIN TEMP:  34; 6HR MAX TEMP:  36;


$$

INZ062-063-066-070>080-084-089>092-020100-
SOUTH CENTRAL AND SOUTHEAST INDIANA

CITY           SKY/WX    TMP DP  RH WIND       PRES   REMARKS
BLOOMINGTON    CLOUDY    31  29  92 NW6       30.29R WCI  25
6HR MIN TEMP:  31; 6HR MAX TEMP:  33; 6HR PCP: TRACE;

SEYMOUR +      CLOUDY    34  32  93 CALM      30.30R FOG

$$



USA.gov is the U.S. government's official web portal to all federal, state and local government web resources and services.